FW0472 Weather Reports


Display with metric or nautical units.
time (UTC)temp
F
wind
direction
speed
MPH
gust
MPH
rain 1hr
in
rain 24hr
in
rain mn
in
humidity
%
barometer
mb
20260831195914 78 319 0.0 0.0 0.00 0.00 0.00 56 1046.0
20260831195409 78 327 0.0 0.0 0.00 0.00 0.00 56 1045.9
20260831194904 77 316 0.0 0.0 0.00 0.00 0.00 56 1046.0
20260831194400 76 351 1.0 2.0 0.00 0.00 0.00 57 1046.2
20260831193859 76 312 0.0 0.0 0.00 0.00 0.00 57 1046.3
20260831193354 76 297 1.0 1.0 0.00 0.00 0.00 57 1046.2
20260831192849 76 321 0.0 0.0 0.00 0.00 0.00 57 1046.2
20260831192344 76 319 0.0 0.0 0.00 0.00 0.00 57 1046.3
20260831191840 76 317 0.0 0.0 0.00 0.00 0.00 57 1046.3
20260831191336 76 312 0.0 0.0 0.00 0.00 0.00 56 1046.3
20260831190832 76 318 0.0 0.0 0.00 0.00 0.00 54 1046.5
20260831190331 77 290 0.0 0.0 0.00 0.00 0.00 55 1046.3
20260831185831 77 298 0.0 0.0 0.00 0.00 0.00 55 1046.2
20260831185327 75 325 0.0 0.0 0.00 0.00 0.00 55 1046.2
20260831184826 76 340 0.0 0.0 0.00 0.00 0.00 54 1046.3
20260831184321 75 302 1.0 1.0 0.00 0.00 0.00 54 1046.4
20260831183816 75 257 0.0 0.0 0.00 0.00 0.00 56 1046.4
20260831183315 74 303 0.0 1.0 0.00 0.00 0.00 58 1046.5
20260831182815 75 342 0.0 0.0 0.00 0.00 0.00 57 1046.6
20260831182310 75 11 0.0 1.0 0.00 0.00 0.00 55 1046.6
20260831181805 74 333 0.0 0.0 0.00 0.00 0.00 55 1046.7
20260831181300 74 317 0.0 1.0 0.00 0.00 0.00 54 1046.7
20260831180755 74 317 0.0 0.0 0.00 0.00 0.00 55 1046.7
20260831180250 73 264 1.0 2.0 0.00 0.00 0.00 54 1046.8
20260831175748 73 311 1.0 1.0 0.00 0.00 0.00 55 1046.9
20260831175245 73 323 0.0 0.0 0.00 0.00 0.00 57 1046.7
20260831174740 72 313 0.0 0.0 0.00 0.00 0.00 60 1046.8
20260831174236 72 323 0.0 0.0 0.00 0.00 0.00 57 1046.9
20260831173734 72 326 0.0 0.0 0.00 0.00 0.00 57 1046.9
20260831173229 71 321 0.0 0.0 0.00 0.00 0.00 59 1046.9
20260831172725 71 341 0.0 0.0 0.00 0.00 0.00 59 1046.8
20260831172220 71 359 1.0 1.0 0.00 0.00 0.00 60 1047.1
20260831171714 71 23 2.0 2.0 0.00 0.00 0.00 60 1047.3
20260831171212 71 320 0.0 1.0 0.00 0.00 0.00 63 1047.4
20260831170708 70 325 0.0 0.0 0.00 0.00 0.00 63 1047.2
20260831170204 70 336 0.0 0.0 0.00 0.00 0.00 65 1047.4
20260831165700 69 319 0.0 0.0 0.00 0.00 0.00 64 1047.4
20260831165156 69 337 0.0 0.0 0.00 0.00 0.00 64 1047.5
20260831164652 68 337 0.0 0.0 0.00 0.00 0.00 68 1047.5
20260831164148 68 337 0.0 0.0 0.00 0.00 0.00 66 1047.5
20260831163643 69 342 0.0 0.0 0.00 0.00 0.00 66 1047.7
20260831163139 68 319 0.0 0.0 0.00 0.00 0.00 67 1047.8
20260831162638 68 334 0.0 0.0 0.00 0.00 0.00 69 1047.7
20260831162136 68 336 0.0 0.0 0.00 0.00 0.00 68 1047.8
20260831161632 68 325 0.0 0.0 0.00 0.00 0.00 70 1047.8
20260831161129 68 355 1.0 1.0 0.00 0.00 0.00 70 1047.9
20260831160627 68 298 1.0 2.0 0.00 0.00 0.00 73 1047.8
20260831160122 67 313 1.0 1.0 0.00 0.00 0.00 74 1047.7
20260831155617 67 309 1.0 1.0 0.00 0.00 0.00 75 1047.7
20260831155113 67 323 0.0 0.0 0.00 0.00 0.00 73 1047.8
20260831154608 67 329 1.0 1.0 0.00 0.00 0.00 75 1047.6
20260831154108 66 310 1.0 1.0 0.00 0.00 0.00 78 1047.8
20260831153607 66 353 0.0 0.0 0.00 0.00 0.00 79 1047.9
20260831153104 66 304 1.0 2.0 0.00 0.00 0.00 80 1047.8
20260831152559 66 322 0.0 0.0 0.00 0.00 0.00 81 1047.7
20260831152055 65 319 0.0 0.0 0.00 0.00 0.00 81 1047.6
20260831151554 64 325 0.0 0.0 0.00 0.00 0.00 84 1047.5
20260831151049 64 300 0.0 0.0 0.00 0.00 0.00 85 1047.6
20260831150544 64 324 0.0 0.0 0.00 0.00 0.00 86 1047.6
20260831150040 63 319 0.0 0.0 0.00 0.00 0.00 89 1047.5
20260831145534 62 333 0.0 0.0 0.00 0.00 0.00 90 1047.4
20260831145031 62 294 0.0 0.0 0.00 0.00 0.00 91 1047.7
20260831144526 61 327 0.0 0.0 0.00 0.00 0.00 92 1047.5
20260831144021 61 281 0.0 0.0 0.00 0.00 0.00 93 1047.7
20260831143516 61 297 1.0 2.0 0.00 0.00 0.00 93 1047.7
20260831143011 60 329 0.0 0.0 0.00 0.00 0.00 93 1047.8
20260831142508 60 338 0.0 0.0 0.00 0.00 0.00 94 1047.9
20260831142002 60 329 0.0 0.0 0.00 0.00 0.00 94 1047.9
20260831141456 60 333 0.0 0.0 0.00 0.00 0.00 94 1047.9
20260831140951 60 310 0.0 1.0 0.00 0.00 0.00 95 1047.9
20260831140450 60 323 0.0 0.0 0.00 0.00 0.00 94 1047.8
20260831135949 60 312 0.0 1.0 0.00 0.00 0.00 95 1048.0
20260831135448 60 321 0.0 0.0 0.00 0.00 0.00 95 1047.9
20260831134943 59 336 0.0 0.0 0.00 0.00 0.00 96 1047.7
20260831134435 59 321 0.0 0.0 0.00 0.00 0.00 97 1047.9
20260831133934 58 324 0.0 1.0 0.00 0.00 0.00 97 1047.8
20260831133434 58 327 0.0 0.0 0.00 0.00 0.00 98 1047.7
20260831132930 58 322 0.0 0.0 0.00 0.00 0.00 99 1047.7
20260831132425 57 342 0.0 0.0 0.00 0.00 0.00 99 1047.8
20260831131924 57 348 0.0 0.0 0.00 0.00 0.00 99 1047.9
20260831131420 56 340 0.0 0.0 0.00 0.00 0.00 99 1047.8
20260831130915 56 330 0.0 0.0 0.00 0.00 0.00 99 1047.6
20260831130411 56 306 0.0 0.0 0.00 0.00 0.00 99 1047.7
20260831125910 56 322 0.0 0.0 0.00 0.00 0.00 99 1047.9
20260831125405 56 309 1.0 1.0 0.00 0.00 0.00 99 1047.8
20260831124901 56 332 0.0 0.0 0.00 0.00 0.00 99 1047.8
20260831124356 55 325 0.0 0.0 0.00 0.00 0.00 99 1047.8
20260831123857 55 329 0.0 0.0 0.00 0.00 0.00 99 1047.6
20260831123356 55 327 0.0 0.0 0.00 0.00 0.00 99 1047.6
20260831122856 55 302 1.0 1.0 0.00 0.00 0.00 99 1047.5
20260831122351 55 6 1.0 1.0 0.00 0.00 0.00 99 1047.6
20260831121846 55 340 0.0 0.0 0.00 0.00 0.00 99 1047.6
20260831121343 54 334 0.0 0.0 0.00 0.00 0.00 99 1047.6
20260831120838 54 336 0.0 0.0 0.00 0.00 0.00 99 1047.6
20260831120332 54 331 0.0 0.0 0.00 0.00 0.00 99 1047.6
20260831115827 54 339 0.0 0.0 0.00 0.00 0.00 99 1047.7
20260831115324 54 353 1.0 1.0 0.00 0.00 0.00 99 1047.6
20260831114823 54 325 0.0 0.0 0.00 0.00 0.00 99 1047.5
20260831114322 54 321 0.0 0.0 0.00 0.00 0.00 99 1047.4
20260831113818 54 321 0.0 0.0 0.00 0.00 0.00 99 1047.3
20260831113317 54 324 0.0 0.0 0.00 0.00 0.00 99 1047.3
20260831112812 54 323 0.0 0.0 0.00 0.00 0.00 99 1047.3
20260831112307 54 337 0.0 0.0 0.00 0.00 0.00 99 1047.4
20260831111802 54 336 0.0 0.0 0.00 0.00 0.00 99 1047.3
20260831111259 54 336 0.0 0.0 0.00 0.00 0.00 99 1047.2
20260831110754 54 337 0.0 0.0 0.00 0.00 0.00 99 1047.2
20260831110249 54 334 0.0 0.0 0.00 0.00 0.00 99 1047.4
20260831105747 54 344 0.0 0.0 0.00 0.00 0.00 99 1047.3
20260831105244 54 337 0.0 0.0 0.00 0.00 0.00 99 1047.1
20260831104743 54 331 0.0 0.0 0.00 0.00 0.00 99 1047.2
20260831104240 54 328 0.0 0.0 0.00 0.00 0.00 99 1047.1
20260831103735 54 328 0.0 0.0 0.00 0.00 0.00 99 1046.9
20260831103230 54 336 0.0 0.0 0.00 0.00 0.00 99 1047.1
20260831102730 54 339 0.0 0.0 0.00 0.00 0.00 99 1046.8
20260831102225 53 333 0.0 0.0 0.00 0.00 0.00 99 1046.8
20260831101720 53 329 0.0 0.0 0.00 0.00 0.00 99 1046.9
20260831101216 53 332 0.0 0.0 0.00 0.00 0.00 99 1046.9
20260831100712 53 328 0.0 0.0 0.00 0.00 0.00 99 1047.0
20260831100208 53 328 0.0 0.0 0.00 0.00 0.00 99 1047.0
20260831095706 54 327 0.0 0.0 0.00 0.00 0.00 99 1046.9
20260831095201 54 331 0.0 0.0 0.00 0.00 0.00 99 1046.8
20260831094656 54 322 0.0 0.0 0.00 0.00 0.00 99 1046.7
20260831094152 55 324 0.0 0.0 0.00 0.00 0.00 99 1046.8
20260831093648 54 332 0.0 0.0 0.00 0.00 0.00 99 1046.8
20260831093143 55 328 0.0 0.0 0.00 0.00 0.00 99 1046.6
20260831092640 55 335 0.0 0.0 0.00 0.00 0.00 99 1046.6
20260831092135 55 322 0.0 0.0 0.00 0.00 0.00 99 1046.6
20260831091634 55 323 0.0 0.0 0.00 0.00 0.00 99 1046.5
20260831091130 55 325 0.0 0.0 0.00 0.00 0.00 99 1046.5
20260831090625 55 326 0.0 0.0 0.00 0.00 0.00 99 1046.5
20260831090121 55 333 0.0 0.0 0.00 0.00 0.00 99 1046.3
20260831085616 55 332 0.0 0.0 0.00 0.00 0.00 99 1046.3
20260831085112 55 332 0.0 0.0 0.00 0.00 0.00 99 1046.5
20260831084608 55 332 0.0 0.0 0.00 0.00 0.00 99 1046.4
20260831084103 55 328 0.0 0.0 0.00 0.00 0.00 99 1046.5
20260831083559 55 328 0.0 0.0 0.00 0.00 0.00 99 1046.5
20260831083054 56 333 0.0 0.0 0.00 0.00 0.00 99 1046.5
20260831082553 56 343 0.0 0.0 0.00 0.00 0.00 99 1046.5
20260831082048 56 330 0.0 0.0 0.00 0.00 0.00 99 1046.4
20260831081544 56 331 0.0 0.0 0.00 0.00 0.00 99 1046.3
20260831081040 56 324 0.0 0.0 0.00 0.00 0.00 99 1046.5
20260831080540 56 331 0.0 0.0 0.00 0.00 0.00 99 1046.3
20260831080036 56 326 0.0 0.0 0.00 0.00 0.00 99 1046.3
20260831075530 56 328 0.0 0.0 0.00 0.00 0.00 99 1046.5
20260831075021 56 339 0.0 0.0 0.00 0.00 0.00 99 1046.2
20260831074520 56 328 0.0 0.0 0.00 0.00 0.00 99 1046.0
20260831074020 56 338 0.0 0.0 0.00 0.00 0.00 99 1046.2
20260831073515 56 330 0.0 0.0 0.00 0.00 0.00 99 1045.9
20260831073014 56 331 0.0 0.0 0.00 0.00 0.00 99 1046.0
20260831072510 56 327 0.0 0.0 0.00 0.00 0.00 99 1046.0
20260831072006 56 322 0.0 0.0 0.00 0.00 0.00 99 1045.8
20260831071505 56 317 0.0 0.0 0.00 0.00 0.00 99 1045.6
20260831071000 57 342 0.0 0.0 0.00 0.00 0.00 99 1045.8
20260831070459 57 342 0.0 0.0 0.00 0.00 0.00 99 1045.7
20260831065958 57 342 0.0 0.0 0.00 0.00 0.00 99 1045.9
20260831065457 58 342 0.0 0.0 0.00 0.00 0.00 99 1045.6
20260831064951 57 342 0.0 0.0 0.00 0.00 0.00 99 1045.6
20260831064447 58 342 0.0 0.0 0.00 0.00 0.00 99 1045.8
20260831063942 58 342 0.0 0.0 0.00 0.00 0.00 99 1045.6
20260831063437 58 342 0.0 0.0 0.00 0.00 0.00 99 1045.7
20260831062931 58 342 0.0 0.0 0.00 0.00 0.00 99 1045.7
20260831062429 58 342 0.0 0.0 0.00 0.00 0.00 99 1045.7
20260831061926 58 342 0.0 0.0 0.00 0.00 0.00 99 1045.7
20260831061425 58 342 0.0 0.0 0.00 0.00 0.00 99 1045.9
20260831060921 58 342 0.0 0.0 0.00 0.00 0.00 99 1045.8
20260831060416 58 342 0.0 0.0 0.00 0.00 0.00 99 1045.6
20260831055915 58 342 0.0 0.0 0.00 0.00 0.00 99 1045.7
20260831055410 58 342 0.0 0.0 0.00 0.00 0.00 99 1045.8
20260831054906 58 342 0.0 0.0 0.00 0.00 0.00 99 1045.6
20260831054401 58 342 0.0 0.0 0.00 0.00 0.00 99 1045.7
20260831053900 58 338 0.0 0.0 0.00 0.00 0.00 99 1045.9
20260831053358 58 337 0.0 0.0 0.00 0.00 0.00 99 1045.6
20260831052853 58 338 0.0 0.0 0.00 0.00 0.00 99 1045.7
20260831052352 58 338 0.0 0.0 0.00 0.00 0.00 99 1045.7
20260831051850 58 338 0.0 0.0 0.00 0.00 0.00 99 1045.7
20260831051348 58 336 0.0 0.0 0.00 0.00 0.00 99 1045.7
20260831050844 58 333 0.0 0.0 0.00 0.00 0.00 99 1045.6
20260831050337 59 333 0.0 0.0 0.00 0.00 0.00 99 1045.8
20260831045831 59 333 0.0 0.0 0.00 0.00 0.00 99 1045.5
20260831045326 59 334 0.0 0.0 0.00 0.00 0.00 99 1045.5
20260831044821 59 325 0.0 0.0 0.00 0.00 0.00 99 1045.6
20260831044316 59 319 0.0 0.0 0.00 0.00 0.00 99 1045.5
20260831043812 59 329 0.0 0.0 0.00 0.00 0.00 98 1045.6
20260831043311 59 329 0.0 0.0 0.00 0.00 0.00 98 1045.5
20260831042806 60 334 0.0 0.0 0.00 0.00 0.00 98 1045.6
20260831042300 60 334 0.0 0.0 0.00 0.00 0.00 98 1045.2
20260831041756 60 343 0.0 0.0 0.00 0.00 0.00 98 1045.4
20260831041255 60 324 0.0 0.0 0.00 0.00 0.00 97 1045.5
20260831040750 60 322 0.0 0.0 0.00 0.00 0.00 97 1045.4
20260831040249 60 324 0.0 0.0 0.00 0.00 0.00 96 1045.4
20260831035748 61 324 0.0 0.0 0.00 0.04 0.04 96 1045.4
20260831035247 61 323 0.0 0.0 0.00 0.04 0.04 96 1045.5
20260831034746 61 331 0.0 0.0 0.00 0.04 0.04 97 1045.4
20260831034242 61 322 0.0 0.0 0.00 0.04 0.04 97 1045.5
20260831033737 62 326 0.0 0.0 0.07 0.04 0.04 99 1045.5
20260831033237 62 336 0.0 0.0 0.07 0.04 0.04 99 1045.6
20260831032732 62 326 1.0 1.0 0.00 0.03 0.03 99 1045.5
20260831032227 63 348 0.0 0.0 0.00 0.03 0.03 99 1045.5
20260831031722 63 330 0.0 1.0 0.00 0.03 0.03 99 1045.7
20260831031217 63 327 0.0 0.0 0.00 0.03 0.03 99 1045.5
20260831030716 63 342 0.0 0.0 0.00 0.03 0.03 99 1045.3
20260831030214 63 341 0.0 0.0 0.00 0.03 0.03 99 1045.3
20260831025708 63 341 0.0 0.0 0.00 0.03 0.03 99 1045.3
20260831025203 63 341 0.0 0.0 0.00 0.03 0.03 99 1045.3
20260831024659 63 341 0.0 0.0 0.00 0.03 0.03 99 1045.3
20260831024157 63 341 0.0 0.0 0.00 0.03 0.03 99 1045.0
20260831023655 63 341 0.0 0.0 0.00 0.03 0.03 99 1045.4
20260831023149 63 341 0.0 0.0 0.00 0.03 0.03 99 1045.3
20260831022645 63 341 0.0 0.0 0.00 0.03 0.03 99 1045.3
20260831022140 63 341 0.0 0.0 0.00 0.03 0.03 99 1045.0
20260831021639 63 341 0.0 0.0 0.00 0.03 0.03 99 1045.2
20260831021134 63 341 0.0 0.0 0.00 0.03 0.03 99 1045.3
20260831020630 63 340 0.0 0.0 0.00 0.03 0.03 99 1045.3
20260831020124 63 340 0.0 0.0 0.00 0.03 0.03 99 1045.2
20260831015620 63 340 0.0 0.0 0.00 0.03 0.03 99 1045.3
20260831015120 63 341 0.0 0.0 0.00 0.03 0.03 99 1045.2
20260831014615 63 341 0.0 0.0 0.00 0.03 0.03 99 1045.4
20260831014111 63 342 0.0 0.0 0.00 0.03 0.03 99 1045.2
20260831013607 63 328 0.0 0.0 0.00 0.03 0.03 99 1044.9
20260831013106 63 327 0.0 0.0 0.00 0.03 0.03 99 1044.8
20260831012606 64 330 0.0 0.0 0.00 0.03 0.03 99 1044.9
20260831012101 64 330 0.0 0.0 0.00 0.03 0.03 99 1045.2
20260831011601 64 345 0.0 0.0 0.00 0.03 0.03 99 1045.0
20260831011056 64 342 0.0 0.0 0.00 0.03 0.03 99 1044.8
20260831010551 64 344 0.0 0.0 0.00 0.03 0.03 99 1044.8
20260831010048 64 341 0.0 0.0 0.00 0.03 0.03 99 1044.6
20260831005542 64 341 0.0 0.0 0.00 0.03 0.03 98 1044.6
20260831005042 64 342 0.0 0.0 0.00 0.03 0.03 98 1044.6
20260831004538 64 327 0.0 0.0 0.00 0.03 0.03 98 1044.8
20260831004034 65 328 0.0 0.0 0.00 0.03 0.03 98 1044.5
20260831003530 65 336 0.0 0.0 0.00 0.03 0.03 98 1044.7
20260831003025 65 323 0.0 0.0 0.00 0.03 0.03 98 1044.6
20260831002524 65 323 0.0 0.0 0.00 0.03 0.03 97 1044.6
20260831002019 65 323 0.0 0.0 0.00 0.03 0.03 97 1044.5
20260831001515 65 323 0.0 0.0 0.00 0.03 0.03 97 1044.5
20260831001011 65 28 0.0 0.0 0.00 0.03 0.03 97 1044.5
20260831000507 65 340 0.0 0.0 0.00 0.03 0.03 96 1044.4
20260830235959 65 340 0.0 0.0 0.00 0.03 0.03 96 1044.4
20260830235455 65 337 0.0 0.0 0.00 0.03 0.03 95 1044.3
20260830234949 65 324 0.0 0.0 0.00 0.03 0.03 94 1044.2
20260830234444 65 325 0.0 0.0 0.05 0.03 0.03 94 1043.8
20260830233940 66 333 0.0 0.0 0.05 0.03 0.03 94 1044.0
20260830233435 66 325 0.0 0.0 0.00 0.02 0.02 94 1044.0
20260830232931 66 324 0.0 0.0 0.07 0.02 0.02 92 1043.8
20260830232427 67 323 0.0 0.0 0.07 0.02 0.02 91 1043.7
20260830231923 68 321 0.0 0.0 0.00 0.01 0.01 89 1043.5
20260830231423 69 325 0.0 0.0 0.00 0.01 0.01 87 1043.7
20260830230918 69 332 0.0 0.0 0.00 0.01 0.01 84 1043.4
20260830230413 70 333 0.0 0.0 0.00 0.01 0.01 80 1043.6
20260830225912 70 313 0.0 0.0 0.00 0.01 0.01 80 1043.5
20260830225408 70 350 0.0 0.0 0.00 0.01 0.01 82 1043.4
20260830224902 69 321 0.0 0.0 0.00 0.01 0.01 84 1043.3
20260830224401 68 311 0.0 0.0 0.00 0.01 0.01 86 1043.5
20260830223858 69 322 0.0 0.0 0.00 0.01 0.01 89 1043.4
20260830223354 69 322 0.0 0.0 0.00 0.01 0.01 87 1043.6
20260830222853 69 322 0.0 0.0 0.00 0.01 0.01 85 1043.2
20260830222349 70 322 0.0 0.0 0.00 0.01 0.01 86 1043.3
20260830221844 70 322 0.0 0.0 0.00 0.01 0.01 86 1043.2
20260830221341 70 323 0.0 0.0 0.00 0.01 0.01 83 1043.2
20260830220836 70 323 0.0 0.0 0.00 0.01 0.01 81 1043.3
20260830220336 70 323 0.0 0.0 0.00 0.01 0.01 81 1043.3
20260830215834 70 322 0.0 0.0 0.00 0.01 0.01 80 1043.3
20260830215328 71 323 0.0 0.0 0.00 0.01 0.01 80 1043.3
20260830214823 71 323 0.0 0.0 0.00 0.01 0.01 80 1043.3
20260830214318 71 323 0.0 0.0 0.00 0.01 0.01 79 1043.3
20260830213818 71 323 0.0 0.0 0.00 0.01 0.01 79 1043.2
20260830213313 71 322 0.0 0.0 0.00 0.01 0.01 78 1043.2
20260830212809 72 322 0.0 0.0 0.00 0.01 0.01 78 1043.4
20260830212306 72 322 0.0 0.0 0.00 0.01 0.01 77 1043.2
20260830211803 72 321 0.0 0.0 0.00 0.01 0.01 76 1043.1
20260830211303 72 321 0.0 0.0 0.00 0.01 0.01 77 1043.3
20260830210759 71 322 0.0 0.0 0.00 0.01 0.01 77 1043.2
20260830210258 71 322 0.0 0.0 0.00 0.01 0.01 76 1043.4
20260830205755 71 341 0.0 0.0 0.00 0.01 0.01 78 1043.4
20260830205250 71 340 0.0 0.0 0.00 0.01 0.01 77 1043.4
20260830204746 71 325 0.0 0.0 0.00 0.01 0.01 75 1043.4
20260830204244 71 325 0.0 0.0 0.00 0.01 0.01 75 1043.4
20260830203741 71 339 0.0 0.0 0.00 0.01 0.01 76 1043.3
20260830203236 72 325 0.0 0.0 0.00 0.01 0.01 74 1043.4
20260830202736 72 322 0.0 0.0 0.00 0.01 0.01 75 1043.5
20260830202231 71 308 0.0 0.0 0.00 0.01 0.01 75 1043.4
20260830201730 71 340 0.0 0.0 0.00 0.01 0.01 77 1043.5
20260830201226 72 334 0.0 0.0 0.00 0.01 0.01 78 1043.3
20260830200721 72 321 0.0 0.0 0.00 0.01 0.01 76 1043.3